• In Slovakia
  • List of Countries
  • For 7 days
  • Water Temperature
  • Satellite Maps
  • Weather Map
  • Weather Widgets
  • user-avatar
    Login

    Hourly Weather Zusenko

    Today, 22 September, Saturday

    Time Temperature Precipitation Wind Pressure Humidity
    00:00 +19°C° 0 mm 6 mps 736 mmHg 57%
    01:00 +19°C° 0 mm 6 mps 736 mmHg 59%
    02:00 +17°C° 0 mm 5 mps 736 mmHg 66%
    03:00 +16°C° 0.8 mm 5 mps 736 mmHg 72%
    04:00 +14°C° 0.8 mm 6 mps 737 mmHg 79%
    05:00 +13°C° 0.8 mm 6 mps 737 mmHg 85%
    06:00 +11°C° 0.3 mm 6 mps 738 mmHg 84%
    07:00 +11°C° 0.3 mm 6 mps 739 mmHg 83%
    08:00 +10°C° 0.3 mm 6 mps 739 mmHg 82%
    09:00 +11°C° 0 mm 6 mps 740 mmHg 78%
    10:00 +11°C° 0 mm 6 mps 740 mmHg 73%
    11:00 +11°C° 0 mm 6 mps 740 mmHg 69%
    12:00 +13°C° 0 mm 6 mps 740 mmHg 64%
    13:00 +14°C° 0 mm 6 mps 740 mmHg 59%
    14:00 +15°C° 0 mm 6 mps 740 mmHg 54%
    15:00 +15°C° 0.2 mm 5 mps 740 mmHg 58%
    16:00 +14°C° 0.2 mm 5 mps 740 mmHg 61%
    17:00 +14°C° 0.2 mm 4 mps 740 mmHg 65%
    18:00 +12°C° 0.1 mm 4 mps 740 mmHg 71%
    19:00 +11°C° 0.1 mm 3 mps 741 mmHg 77%
    20:00 +10°C° 0.1 mm 3 mps 741 mmHg 83%
    21:00 +9°C° 0 mm 3 mps 741 mmHg 84%
    22:00 +9°C° 0 mm 3 mps 741 mmHg 84%
    23:00 +8°C° 0 mm 4 mps 741 mmHg 84%

    Tomorrow, 23 September, Sunday

    Time Temperature Precipitation Wind Pressure Humidity
    00:00 +8°C° 0 mm 4 mps 740 mmHg 84%
    01:00 +8°C° 0 mm 4 mps 740 mmHg 84%
    02:00 +7°C° 0 mm 4 mps 740 mmHg 83%
    03:00 +7°C° 0 mm 4 mps 740 mmHg 83%
    04:00 +8°C° 0 mm 4 mps 740 mmHg 83%
    05:00 +8°C° 0 mm 4 mps 740 mmHg 82%
    06:00 +8°C° 0 mm 5 mps 739 mmHg 81%
    07:00 +8°C° 0 mm 5 mps 739 mmHg 79%
    08:00 +8°C° 0 mm 6 mps 739 mmHg 78%
    09:00 +10°C° 0 mm 6 mps 739 mmHg 71%
    10:00 +11°C° 0 mm 6 mps 740 mmHg 64%
    11:00 +12°C° 0 mm 7 mps 740 mmHg 57%
    12:00 +14°C° 0 mm 7 mps 740 mmHg 55%
    13:00 +14°C° 0 mm 6 mps 740 mmHg 52%
    14:00 +15°C° 0 mm 6 mps 740 mmHg 50%
    15:00 +14°C° 0 mm 5 mps 739 mmHg 52%
    16:00 +14°C° 0 mm 5 mps 739 mmHg 54%
    17:00 +14°C° 0 mm 4 mps 739 mmHg 56%
    18:00 +12°C° 0 mm 3 mps 738 mmHg 61%
    19:00 +11°C° 0 mm 3 mps 738 mmHg 65%
    20:00 +9°C° 0 mm 2 mps 738 mmHg 70%
    21:00 +9°C° 0 mm 2 mps 737 mmHg 71%
    22:00 +9°C° 0 mm 2 mps 737 mmHg 71%
    23:00 +9°C° 0 mm 2 mps 736 mmHg 72%

    Day after tomorrow, 24 September, Monday

    Time Temperature Precipitation Wind Pressure Humidity
    00:00 +10°C° 0.2 mm 1 mps 735 mmHg 75%
    01:00 +10°C° 0.2 mm 1 mps 735 mmHg 78%
    02:00 +9°C° 0.2 mm 1 mps 734 mmHg 81%
    03:00 +9°C° 0.6 mm 1 mps 733 mmHg 82%
    04:00 +8°C° 0.6 mm 2 mps 733 mmHg 83%
    05:00 +8°C° 0.6 mm 2 mps 732 mmHg 84%
    06:00 +8°C° 0.3 mm 3 mps 732 mmHg 85%
    07:00 +8°C° 0.3 mm 3 mps 733 mmHg 86%
    08:00 +7°C° 0.3 mm 4 mps 733 mmHg 87%
    09:00 +8°C° 0.3 mm 4 mps 734 mmHg 82%
    10:00 +9°C° 0.3 mm 5 mps 734 mmHg 77%
    11:00 +10°C° 0.3 mm 6 mps 735 mmHg 72%
    12:00 +11°C° 0.3 mm 6 mps 735 mmHg 68%
    13:00 +11°C° 0.3 mm 6 mps 736 mmHg 64%
    14:00 +12°C° 0.3 mm 7 mps 736 mmHg 61%
    15:00 +11°C° 0.4 mm 7 mps 737 mmHg 66%
    16:00 +10°C° 0.4 mm 7 mps 738 mmHg 71%
    17:00 +9°C° 0.4 mm 7 mps 738 mmHg 76%
    18:00 +8°C° 0.3 mm 7 mps 739 mmHg 78%
    19:00 +7°C° 0.3 mm 6 mps 740 mmHg 81%
    20:00 +5°C° 0.3 mm 6 mps 741 mmHg 83%
    21:00 +5°C° 0 mm 6 mps 742 mmHg 83%
    22:00 +4°C° 0 mm 6 mps 743 mmHg 83%
    23:00 +3°C° 0 mm 5 mps 744 mmHg 83%

    25 September, Tuesday

    Time Temperature Precipitation Wind Pressure Humidity
    00:00 +3°C° 0 mm 5 mps 744 mmHg 83%
    01:00 +3°C° 0 mm 5 mps 745 mmHg 83%
    02:00 +2°C° 0 mm 5 mps 745 mmHg 83%
    03:00 +3°C° 0 mm 4 mps 746 mmHg 83%
    04:00 +3°C° 0 mm 4 mps 746 mmHg 83%
    05:00 +3°C° 0 mm 4 mps 747 mmHg 84%
    06:00 +3°C° 0 mm 5 mps 747 mmHg 81%
    07:00 +5°C° 0 mm 5 mps 748 mmHg 78%
    08:00 +5°C° 0 mm 5 mps 748 mmHg 75%
    09:00 +5°C° 0 mm 6 mps 749 mmHg 69%
    10:00 +8°C° 0 mm 7 mps 749 mmHg 62%
    11:00 +9°C° 0 mm 8 mps 750 mmHg 55%
    12:00 +9°C° 0.2 mm 8 mps 750 mmHg 54%
    13:00 +9°C° 0.2 mm 8 mps 751 mmHg 53%
    14:00 +10°C° 0.2 mm 8 mps 751 mmHg 52%
    15:00 +9°C° 0 mm 7 mps 751 mmHg 53%
    16:00 +9°C° 0 mm 6 mps 752 mmHg 53%
    17:00 +9°C° 0 mm 5 mps 752 mmHg 54%
    18:00 +8°C° 0 mm 4 mps 752 mmHg 59%
    19:00 +6°C° 0 mm 4 mps 753 mmHg 63%
    20:00 +5°C° 0 mm 3 mps 753 mmHg 68%
    21:00 +5°C° 0 mm 4 mps 753 mmHg 71%
    22:00 +5°C° 0 mm 4 mps 753 mmHg 74%
    23:00 +5°C° 0 mm 4 mps 753 mmHg 77%

    26 September, Wednesday

    Time Temperature Precipitation Wind Pressure Humidity
    00:00 +5°C° 0 mm 5 mps 753 mmHg 78%
    01:00 +6°C° 0 mm 5 mps 752 mmHg 79%
    02:00 +5°C° 0 mm 6 mps 752 mmHg 80%
    03:00 +5°C° 0 mm 6 mps 752 mmHg 80%
    04:00 +5°C° 0 mm 6 mps 752 mmHg 80%
    05:00 +7°C° 0 mm 6 mps 751 mmHg 81%
    06:00 +6°C° 0 mm 7 mps 751 mmHg 80%
    07:00 +6°C° 0 mm 7 mps 751 mmHg 79%
    08:00 +8°C° 0 mm 7 mps 751 mmHg 78%
    09:00 +8°C° 0.2 mm 7 mps 750 mmHg 76%
    10:00 +7°C° 0.2 mm 8 mps 750 mmHg 75%
    11:00 +9°C° 0.2 mm 8 mps 750 mmHg 73%
    12:00 +9°C° 0.1 mm 8 mps 749 mmHg 70%
    13:00 +9°C° 0.1 mm 8 mps 749 mmHg 68%
    14:00 +10°C° 0.1 mm 9 mps 748 mmHg 66%
    15:00 +9°C° 0.1 mm 8 mps 748 mmHg 66%
    16:00 +9°C° 0.1 mm 8 mps 747 mmHg 67%
    17:00 +9°C° 0.1 mm 8 mps 746 mmHg 67%
    18:00 +7°C° 0.2 mm 8 mps 746 mmHg 71%
    19:00 +7°C° 0.2 mm 8 mps 746 mmHg 74%
    20:00 +6°C° 0.2 mm 8 mps 745 mmHg 78%
    21:00 +6°C° 0.1 mm 8 mps 745 mmHg 76%
    22:00 +7°C° 0.1 mm 8 mps 744 mmHg 75%
    23:00 +7°C° 0.1 mm 8 mps 744 mmHg 74%

    27 September, Thursday

    Time Temperature Precipitation Wind Pressure Humidity
    00:00 +9°C° 0 mm 8 mps 744 mmHg 73%
    01:00 +9°C° 0 mm 8 mps 743 mmHg 73%
    02:00 +10°C° 0 mm 8 mps 743 mmHg 73%
    03:00 +10°C° 0.2 mm 8 mps 742 mmHg 76%
    04:00 +9°C° 0.2 mm 8 mps 742 mmHg 78%
    05:00 +9°C° 0.2 mm 8 mps 741 mmHg 81%
    06:00 +9°C° 0.4 mm 8 mps 741 mmHg 80%
    07:00 +9°C° 0.4 mm 8 mps 741 mmHg 80%
    08:00 +9°C° 0.4 mm 8 mps 740 mmHg 80%
    09:00 +10°C° 0.1 mm 8 mps 740 mmHg 78%
    10:00 +12°C° 0.1 mm 8 mps 740 mmHg 77%
    11:00 +13°C° 0.1 mm 9 mps 740 mmHg 75%
    12:00 +13°C° 0.1 mm 9 mps 739 mmHg 75%
    13:00 +13°C° 0.1 mm 8 mps 739 mmHg 74%
    14:00 +15°C° 0.1 mm 8 mps 739 mmHg 73%
    15:00 +13°C° 0.1 mm 8 mps 738 mmHg 76%
    16:00 +13°C° 0.1 mm 8 mps 737 mmHg 78%
    17:00 +12°C° 0.1 mm 8 mps 737 mmHg 80%
    18:00 +12°C° 0.1 mm 9 mps 736 mmHg 80%
    19:00 +12°C° 0.1 mm 9 mps 736 mmHg 80%
    20:00 +12°C° 0.1 mm 9 mps 736 mmHg 80%
    21:00 +11°C° 0.6 mm 8 mps 736 mmHg 82%
    22:00 +11°C° 0.6 mm 8 mps 736 mmHg 85%
    23:00 +10°C° 0.6 mm 7 mps 736 mmHg 87%
    Show more